Regional Weather Roundup
Issued by NWS Wakefield, VA

Home | Current Version | Previous Version | Text Only | Print | Product List | Glossary Off
Versions: 1 2 3 4 5 6 7 8 9 10 11 12 13 14 15 16 17 18 19 20 21 22 23 24 25 26 27 28 29 30 31 32 33 34 35 36 37 38 39 40 41 42 43 44 45 46 47 48 49 50

000
ASUS41 KAKQ 072015
RWRAKQ

REGIONAL WEATHER ROUNDUP
NATIONAL WEATHER SERVICE WAKEFIELD VA
400 PM EDT TUE JUL 07 2015

Note: "fair" indicates few or no clouds below 12,000 feet with no
significant weather and/or obstructions to visibility. * = Denotes
station may not report precipitation (e.g., rain,snow,etc.),
thunder or fog.

VAZ042-051-052>054-056-072100-
NORTHERN VIRGINIA

CITY           SKY/WX    TMP DP  RH WIND       PRES   REMARKS
WASH NATIONAL  MOSUNNY   91  67  44 SW10      30.00F
DULLES         MOSUNNY   87  67  51 SW10      30.01F
FORT BELVOIR   SUNNY     88  69  54 S7        30.01S
QUANTICO       MOSUNNY   89  66  46 SW9       30.02F
FREDERICKSBRG* SUNNY     91  69  47 SW13      30.01F HX  96
STAFFORD*      MOSUNNY   86  66  52 SW5       30.06S
WARRENTON      SUNNY     89  71  55 S6        30.02S
CULPEPER*      MOSUNNY   87  68  54 S7        30.02F
MANASSAS*      SUNNY     88  66  48 SW8       30.01F
LEESBURG*      SUNNY     90  72  55 SW10G17   30.01F HX  96
WINCHESTER     MOSUNNY   88  68  51 S6        30.01F
FRONT ROYAL*   FAIR      86  68  54 S6        30.01F
LURAY*         FAIR      90  68  48 S9        30.02F
$$

VAZ048-049-060>072-079>083-072100-
CENTRAL AND SOUTH CENTRAL VIRGINIA

CITY           SKY/WX    TMP DP  RH WIND       PRES   REMARKS
RICHMOND       MOSUNNY   90  67  46 SW15G22   30.04F
CHESTERFIELD*  NOT AVBL
PETERSBURG*    SUNNY     90  74  59 W10       30.06F HX 100
HANOVER        SUNNY     89  67  47 W10       30.05F
TAPPAHANNOCK*  MOSUNNY   89  66  47 S7        30.04F
QUINTON*       NOT AVBL
CHARLOTTSVILLE MOSUNNY   88  68  51 S10       30.03F
GORDONSVILLE*  FAIR      86  70  58 SW10      30.03S
ORANGE*        SUNNY     88  70  55 S10       30.05S
LOUISA*        SUNNY     88  70  55 S7        30.04F
BUMPASS*       FAIR      87  71  58 SW5       30.04F
FARMVILLE*     MOSUNNY   89  67  48 S10       30.05F
CREWE*         FAIR      87  69  53 S6        30.07F
FORT PICKETT*  NOT AVBL
CHASE CITY*    FAIR      90  73  58 CALM      30.07F HX  98
CLARKSVILLE*   FAIR      88  72  58 S3        30.06F
SOUTH HILL*    MOSUNNY   87  72  59 SW6       30.12F
LAWRENCEVILLE* NOT AVBL
EMPORIA*         N/A     86  72  62 S3        30.07F
$$

VAZ088>098-072100-
SOUTHEAST VIRGINIA

CITY           SKY/WX    TMP DP  RH WIND       PRES   REMARKS
NORFOLK        CLOUDY    88  71  57 SW12      30.04F
VIRGINIA BEACH PTSUNNY   92  74  55 SW12      30.04F HX 101
NORFOLK NAVAL  PTSUNNY   88  73  61 W8        30.06F HX  95
WEST POINT*    SUNNY     92  68  45 SW8       30.06S HX  95
SALUDA*        FAIR      88  70  54 SW9G17    30.04S
NEWPORT NEWS   SUNNY     89  73  59 SW13      30.05F HX  97
LANGLEY AFB    MOSUNNY   89  75  62 SW14      30.03F HX  99
FORT EUSTIS    SUNNY     89  85  90 SW6       30.03F HX 116
WILLIAMSBURG*  SUNNY     93  73  52 SW6       30.06F HX 102
HR EXEC AP*    FAIR      90  75  62 SW8       30.07F HX 100
FRANKLIN*      MOSUNNY   89  74  61 SW6       30.06F HX  97
WAKEFIELD      MOSUNNY   90  71  53 S7        30.05F HX  96
$$

VAZ020-022-025-037-045-072100-
WEST CENTRAL AND SOUTHWEST VIRGINIA

CITY           SKY/WX    TMP DP  RH WIND       PRES   REMARKS
STAUNTON*      SUNNY     89  65  44 SW12G18   30.07F
WAYNESBORO*    FAIR      84  67  56 SW8G18    30.08F
HOT SPRINGS VA MOSUNNY   78  62  57 SW12      30.21S
LYNCHBURG      MOSUNNY   83  66  56 SW8       30.09F
DANVILLE       MOSUNNY   87  69  54 SW8       30.08F
SOUTH BOSTON*  FAIR      87  70  56 MISG      30.07F
MARTINSVILLE   PTSUNNY   87  67  51 SW3       30.11F
ROANOKE        MOSUNNY   87  65  47 W8        30.10F
BLACKSBURG     MOSUNNY   83  67  58 SW6       30.16F
DUBLIN*        PTSUNNY   83  66  56 SW8       30.15F
MARION*        MOSUNNY   82  67  59 W15       30.19S
HILLSVILLE*    CLOUDY    77  66  68 S5        30.17F
RICHLANDS*     FAIR      80  66  63 SW10G17   30.17F
WISE*          PTSUNNY   81  64  57 SW9       30.18S
ABINGDON*      PTSUNNY   83  67  58 W13       30.15F
$$

MDZ021>025-VAZ099-100-072100-
SOUTHERN MARYLAND AND THE DELMARVA PENINSULA

CITY           SKY/WX    TMP DP  RH WIND       PRES   REMARKS
PATUXENT RIVER MOSUNNY   87  69  54 SW12      30.01F
BAY BRIDGE APT   N/A     86  68  54 S10       29.99F
LEONARDTOWN    SUNNY     86  66  51 SW9       30.03F
DOVER          MOSUNNY   88  71  55 S14G20    29.98F
GEORGETOWN     MOSUNNY   88  71  57 SW15      30.02F
EASTON         MOSUNNY   90  72  55 SW8G16    30.04F HX  96
CAMBRIDGE      MOSUNNY   86  68  54 SW7       30.01F
SALISBURY      MOSUNNY   86  72  62 SW13      30.02F
OCEAN CITY     SUNNY     84  75  74 S10G18    30.03F
WALLOPS ISLAND MOSUNNY   86  77  74 S18       30.04F HX  97
ACCOMACK*      SUNNY     86  73  66 SW14      30.04F
$$

NCZ012>017-030>032-072100-
NORTH CENTRAL AND EASTERN NORTH CAROLINA

CITY           SKY/WX    TMP DP  RH WIND       PRES   REMARKS
ROANOKE RAPIDS FAIR      86  72  62 S7        30.06F
RALEIGH        MOSUNNY   90  70  51 SW13      30.08F HX  95
ELIZABETH CITY SUNNY     89  73  59 S10       30.07F HX  97
AHOSKIE*       MOSUNNY   89  72  56 S3        30.06F HX  96
EDENTON*         N/A     90  72  56 SW9       30.07F HX  97
CURRITUCK*     MOSUNNY   89  69  50 SW7       30.07F
KILL DEVIL HLS MOSUNNY   92  73  52 S7        30.07F HX 101
MANTEO         MOSUNNY   85  76  74 S15       30.08F HX  95
CAPE HATTERAS  SUNNY     82  74  76 SW13      30.12F
TARBORO*       NOT AVBL
GOLDSBORO      MOSUNNY   92  70  47 SW6       30.06S HX  98
WASHINGTON     MOSUNNY   89  70  53 SW8       30.08S
GREENVILLE     SUNNY     91  72  52 SW12      30.08F HX  98
NEW BERN       PTSUNNY   88  73  61 S12       30.10F HX  95
WILMINGTON     MOSUNNY   89  71  55 SW14G22   30.11S HX  95
$$

VAZ048-072100-
ELSEWHERE

CITY           SKY/WX    TMP DP  RH WIND       PRES   REMARKS
HARRISBURG PA  MOSUNNY   86  68  54 VRB6      29.96F
BALTIMORE      MOSUNNY   87  69  54 S5        29.98F
ANNAPOLIS      SUNNY     85  72  65 S10       29.99F
ANDREWS AFB    SUNNY     88  70  55 SW14      30.00F
PHILADELPHIA   PTSUNNY   90  68  48 SW14      29.97F
HENDERSON NC   SUNNY     88  66  48 S5        30.08F
GREENSBORO     PTSUNNY   89  66  46 W8        30.09F
ROCKY MOUNT    MOSUNNY   93  69  45 SW13      30.07F HX  98
$$

VAZ100-072100-
MARINE

STATION/POSITION TIME  TEMP    WIND        PRES    WAVE   SWELL
                       AIR SEA DIR/SP/G            HT/PER HT/PER
                 (UTC) (F)     (DEG/KT/KT) (MB)    (FT/S) (FT/S)
BRANDYWINE LGT   1900   77 75  150/ 10/ 10 1016.5F
CAPE MAY NJ      1900   81 81  160/  9/ 11 1016.2F
LEWES DE         1900   88 74  220/  7/ 11 1016.3F
15NM E FENWICK I 1950   77 76              1016.3F   4/ 5
OCEAN-CITY-INLET 1900   76 73  210/ 14/ 17 1017.1F
WACHAPREAGUE VA  1900   84 83  210/ 10/ 13 1017.9F
GOOSES REEF MD   2000   85 81  230/ 10/ 12 1017.0F
COVE POINT MD    1900   81     170/ 10/ 12 1017.4F
SOLOMONS ISLAND  1900      80                N/A
BISHOPS HEAD MD  1900   84     200/ 14/ 16 1016.9F
PINEY POINT MD   1900          250/  5/  7   N/A
CAMBRIDGE MD     1900   85 80  220/  8/ 12 1016.7F
LEWISETTA VA     1900   87 84  240/  8/ 13 1016.7F
RAPPAHANNOCK LGT 1900          180/ 12/ 12 1018.4F
STINGRAY PT      2000   86 82  220/ 10/ 12 1017.1F   1/ 2
YORK RVR RNG VA  1900   86     240/ 10/ 13 1017.3F
YORKTOWN VA      1900   86 80  230/  9/ 12 1017.5F
JAMESTOWN VA     2000   87 84  220/ 10/ 12   N/A
DOMINION TERM VA 1900   86     250/  7/  8 1017.8F
KIPTOPEKE VA     1900      86  170/  3/  4   N/A
CHES BAY BRIDGE  1900   86 78  240/  8/ 10 1017.4F
CAPE HENRY VA    1900   88     220/  6/ 12   N/A
CHESAPEAKE LGHT  1900   81     180/ 17/ 18 1018.4F
WILLOUBY STN VA  1900   84     250/  9/ 10 1018.8F
CAPE HENRY BUOY  1928      80                N/A     3/ 8   2/14
1ST LANDING BUOY 2000      81              1017.1F
CAPE CHARLES BUO 1926      79                N/A     2/ 9   2/ 9
OFFSHORE WE BUOY 1911      78                N/A     3/ 8   2/ 8
64NM E OF VA BCH 1850   78 77  190/ 12/ 14 1018.8    3/ 8   2/ 8
DUCK PIER NC     1900   86 72  210/  9/ 12   N/A
44100 DUCK FRF   1924      80                N/A     2/ 8   2/13
44056 DUCK FRF   1911      78                N/A     2/14   2/14
OREGON INLET NC  1900   81 84  190/ 14/ 17 1019.4F
HATTERAS NC      1900   83 81  200/  9/ 14 1019.9F
DIAMOND SHLS NC  1950   81 83  210/ 17/ 19 1019.9F   3/ 8   2/ 8
CAPE LOOKOUT NC  2000   82     200/ 13/ 17 1019.9F
$$


USA.gov is the U.S. government's official web portal to all federal, state and local government web resources and services.